This is the latest recevied weather packets stored in our database for station/object WB4YDL. If no packets are shown the sender has not sent any weather packets the latest 10 day(s).
| Time | Temp. | Humidity | Pressure | Rain* | Wind** | Luminosity | Snow |
|---|---|---|---|---|---|---|---|
| 1777773743 | 10.56° C | 68% | 1014.6 hPa | 0 mm | - | 0 W/m² | - |
| 1777773439 | 10.56° C | 70% | 1014.5 hPa | 0 mm | - | 0 W/m² | - |
| 1777773136 | 10.56° C | 71% | 1014.5 hPa | 0 mm | - | 0 W/m² | - |
| 1777772832 | 11.11° C | 68% | 1014.5 hPa | 0 mm | - | 0 W/m² | - |
| 1777772530 | 11.67° C | 65% | 1014.2 hPa | 0 mm | - | 0 W/m² | - |
| 1777772227 | 11.67° C | 63% | 1014.4 hPa | 0 mm | - | 0 W/m² | - |
| 1777771925 | 11.67° C | 63% | 1014.5 hPa | 0 mm | - | 0 W/m² | - |
| 1777771622 | 12.22° C | 61% | 1014.4 hPa | 0 mm | - | 0 W/m² | - |
| 1777771318 | 12.22° C | 61% | 1014.2 hPa | 0 mm | - | 0 W/m² | - |
| 1777771015 | 12.22° C | 60% | 1014 hPa | 0 mm | - | 0 W/m² | - |
| 1777770712 | 12.22° C | 61% | 1013.8 hPa | 0 mm | - | 0 W/m² | - |
| 1777770408 | 12.78° C | 60% | 1014.1 hPa | 0 mm | - | 0 W/m² | - |
| 1777770106 | 12.78° C | 61% | 1013.9 hPa | 0 mm | - | 0 W/m² | - |
| 1777769803 | 12.78° C | 60% | 1013.9 hPa | 0 mm | - | 1 W/m² | - |
| 1777769500 | 12.78° C | 60% | 1013.8 hPa | 0 mm | - | 2 W/m² | - |
| 1777769196 | 12.78° C | 59% | 1013.8 hPa | 0 mm | - | 3 W/m² | - |
| 1777768895 | 13.33° C | 61% | 1013.9 hPa | 0 mm | - | 5 W/m² | - |
| 1777768591 | 13.33° C | 59% | 1013.9 hPa | 0 mm | - | 9 W/m² | - |
| 1777768288 | 13.89° C | 59% | 1013.5 hPa | 0 mm | - | 12 W/m² | - |
| 1777767985 | 13.89° C | 57% | 1013.5 hPa | 0 mm | - | 16 W/m² | - |
| 1777767682 | 13.89° C | 60% | 1013.4 hPa | 0 mm | - | 20 W/m² | - |
| 1777767378 | 14.44° C | 60% | 1013.5 hPa | 0 mm | - | 24 W/m² | - |
| 1777767075 | 14.44° C | 59% | 1013.3 hPa | 0 mm | - | 29 W/m² | - |
| 1777766773 | 14.44° C | 60% | 1013.3 hPa | 0 mm | - | 34 W/m² | - |
| 1777766470 | 15° C | 59% | 1013.2 hPa | 0 mm | - | 40 W/m² | - |
* Rain latest hour (hover to see other rain measurements)
** Current wind speed in m/s (hover to see current wind gust speed)